DW7371 Weather Reports


Display with metric or nautical units.
time (UTC)temp
F
wind
direction
speed
MPH
gust
MPH
rain 1hr
in
rain 24hr
in
rain mn
in
humidity
%
barometer
mb
20260508151647 52 234 4.0 9.0 0.00 0.00 0.00 82 1015.6
20260508150615 52 207 3.0 6.0 0.00 0.00 0.00 83 1015.6
20260508145640 52 259 4.0 11.0 0.00 0.00 0.00 83 1015.4
20260508144615 51 238 7.0 11.0 0.00 0.00 0.00 83 1015.5
20260508143625 51 240 5.0 9.0 0.00 0.00 0.00 86 1015.3
20260508142634 51 211 4.0 8.0 0.00 0.00 0.00 87 1015.1
20260508141606 50 164 2.0 5.0 0.00 0.00 0.00 89 1015.0
20260508140536 50 125 0.0 3.0 0.00 0.00 0.00 89 1014.9
20260508135601 50 118 0.0 2.0 0.00 0.00 0.00 90 1014.7
20260508133358 49 117 0.0 3.0 0.00 0.00 0.00 92 1014.5
20260508132418 49 119 1.0 3.0 0.00 0.00 0.00 92 1014.4
20260508131421 49 130 0.0 3.0 0.00 0.00 0.00 92 1014.4
20260508125246 48 173 0.0 4.0 0.00 0.00 0.00 93 1014.5
20260508121940 48 159 0.0 3.0 0.00 0.00 0.00 94 1014.3
20260508120952 48 143 0.0 3.0 0.00 0.00 0.00 93 1014.3
20260508115935 48 140 0.0 5.0 0.00 0.00 0.00 93 1014.3
20260508114926 48 157 1.0 5.0 0.00 0.00 0.00 93 1014.3
20260508113947 48 168 0.0 3.0 0.00 0.00 0.00 93 1014.3
20260508112943 48 151 0.0 3.0 0.00 0.00 0.00 93 1014.2
20260508111948 48 170 0.0 2.0 0.00 0.00 0.00 93 1014.0
20260508104641 48 112 0.0 3.0 0.00 0.00 0.00 94 1014.0
20260508102428 49 112 0.0 2.0 0.00 0.00 0.00 94 1013.9
20260508101445 48 128 0.0 2.0 0.00 0.00 0.00 94 1013.9
20260508095326 48 190 0.0 4.0 0.00 0.00 0.00 94 1014.0
20260508094302 49 151 1.0 3.0 0.00 0.00 0.00 93 1013.8
20260508093313 49 189 0.0 3.0 0.00 0.00 0.00 94 1013.8
20260508092313 48 150 0.0 3.0 0.00 0.00 0.00 94 1013.8
20260508091333 48 155 0.0 3.0 0.00 0.00 0.00 94 1013.9
20260508090320 48 175 0.0 2.0 0.00 0.00 0.00 93 1013.9
20260508085307 48 117 0.0 0.0 0.00 0.00 0.00 93 1013.8
20260508083144 48 128 0.0 0.0 0.00 0.00 0.00 93 1013.9
20260508082129 48 170 0.0 2.0 0.00 0.00 0.00 93 1013.9
20260508080053 49 55 0.0 0.0 0.00 0.00 0.00 92 1013.8
20260508075106 49 143 0.0 3.0 0.00 0.00 0.00 92 1014.1
20260508074127 49 163 0.0 3.0 0.00 0.00 0.00 93 1014.1
20260508073128 48 177 0.0 0.0 0.00 0.00 0.00 93 1014.2
20260508072107 48 189 0.0 1.0 0.00 0.00 0.00 92 1014.2
20260508064736 49 126 0.0 0.0 0.00 0.00 0.00 91 1014.2
20260508063753 49 110 0.0 0.0 0.00 0.00 0.00 91 1014.3
20260508062803 49 110 0.0 0.0 0.00 0.00 0.00 90 1014.3
20260508061750 49 110 0.0 0.0 0.00 0.00 0.00 90 1014.4
20260508060716 49 110 0.0 2.0 0.00 0.00 0.00 90 1014.4
20260508055729 49 119 0.0 2.0 0.00 0.00 0.00 90 1014.4
20260508054716 49 153 0.0 2.0 0.00 0.00 0.00 90 1014.5
20260508052603 49 157 0.0 0.0 0.00 0.00 0.00 90 1014.5
20260508051537 49 126 0.0 0.0 0.00 0.00 0.00 88 1014.5
20260508050509 50 126 0.0 0.0 0.00 0.00 0.00 88 1014.4
20260508044349 50 130 0.0 1.0 0.00 0.00 0.00 86 1014.4
20260508043349 50 100 1.0 3.0 0.00 0.00 0.00 85 1014.5
20260508042342 51 155 1.0 4.0 0.00 0.00 0.00 84 1014.6
20260508041328 52 183 2.0 4.0 0.00 0.00 0.00 83 1014.7
20260508035238 53 196 1.0 3.0 0.00 0.00 0.00 81 1014.7
20260508034217 52 147 0.0 2.0 0.00 0.00 0.00 81 1014.6
20260508033151 53 123 0.0 0.0 0.00 0.00 0.00 81 1014.6
20260508032125 53 127 0.0 1.0 0.00 0.00 0.00 81 1014.6
20260508031128 53 142 0.0 2.0 0.00 0.00 0.00 80 1014.6
20260508030134 53 250 3.0 9.0 0.00 0.00 0.00 79 1014.6
20260508025109 54 257 6.0 10.0 0.00 0.00 0.00 78 1014.7
20260508024103 54 263 6.0 9.0 0.00 0.00 0.00 77 1014.7
20260508023029 56 244 5.0 8.0 0.00 0.00 0.00 77 1014.9
20260508022007 57 204 5.0 9.0 0.00 0.00 0.00 76 1014.9
20260508021021 57 221 6.0 9.0 0.00 0.00 0.00 72 1014.8
20260508020012 59 215 6.0 9.0 0.00 0.00 0.00 70 1014.8
20260508014944 60 224 6.0 8.0 0.00 0.00 0.00 65 1014.8
20260508011702 61 197 4.0 8.0 0.00 0.00 0.00 68 1015.0
20260508010641 60 200 3.0 6.0 0.00 0.00 0.00 68 1015.1
20260508005703 60 208 4.0 6.0 0.00 0.00 0.00 71 1015.3
20260508004651 60 236 4.0 8.0 0.00 0.00 0.00 71 1015.3
20260508003701 60 182 2.0 9.0 0.00 0.00 0.00 70 1015.5
20260508002652 60 178 3.0 9.0 0.00 0.00 0.00 72 1015.5
20260508001633 60 164 5.0 9.0 0.00 0.00 0.00 70 1015.6
20260508000607 60 181 6.0 9.0 0.00 0.00 0.00 70 1015.5
20260507235629 60 159 6.0 13.0 0.00 0.00 0.00 69 1015.5
20260507234616 60 186 6.0 13.0 0.00 0.00 0.00 70 1015.4
20260507232451 61 197 3.0 8.0 0.00 0.00 0.00 69 1015.6
20260507230309 61 147 4.0 10.0 0.00 0.00 0.00 69 1015.8
20260507225236 60 185 5.0 10.0 0.00 0.00 0.00 71 1016.0
20260507224232 60 186 5.0 10.0 0.00 0.00 0.00 70 1016.0
20260507223244 61 187 5.0 9.0 0.00 0.00 0.00 69 1016.1
20260507222213 60 220 4.0 9.0 0.00 0.00 0.00 71 1016.1
20260507221205 61 190 4.0 9.0 0.00 0.00 0.00 73 1016.2
20260507220221 60 194 4.0 9.0 0.00 0.00 0.00 72 1016.4
20260507215231 60 194 3.0 9.0 0.00 0.00 0.00 74 1016.6
20260507214232 59 178 4.0 8.0 0.00 0.00 0.00 73 1016.7
20260507212143 59 217 5.0 9.0 0.00 0.00 0.00 78 1017.0
20260507211121 58 270 4.0 9.0 0.00 0.00 0.00 80 1017.1
20260507210135 57 281 1.0 6.0 0.00 0.00 0.00 80 1017.2
20260507205120 57 222 2.0 5.0 0.00 0.00 0.00 79 1017.3
20260507204117 57 194 2.0 5.0 0.00 0.00 0.00 79 1017.4
20260507203123 57 338 2.0 8.0 0.00 0.00 0.00 79 1017.5
20260507202138 58 225 1.0 8.0 0.00 0.00 0.00 79 1017.6
20260507201148 57 171 2.0 6.0 0.00 0.00 0.00 81 1017.7
20260507200144 57 211 1.0 4.0 0.00 0.00 0.00 81 1017.7
20260507195113 56 280 1.0 5.0 0.00 0.00 0.00 83 1017.9
20260507192931 55 309 0.0 3.0 0.00 0.00 0.00 82 1018.0
20260507191949 55 57 0.0 1.0 0.00 0.00 0.00 83 1018.0
20260507190954 55 268 1.0 3.0 0.00 0.00 0.00 84 1018.1
20260507190008 55 246 1.0 4.0 0.00 0.00 0.00 82 1018.1
20260507185029 55 193 1.0 4.0 0.00 0.00 0.00 82 1018.1
20260507184019 55 57 0.0 1.0 0.00 0.00 0.00 82 1018.2
20260507182952 55 298 0.0 3.0 0.00 0.00 0.00 81 1018.2
20260507181938 55 48 0.0 3.0 0.00 0.00 0.00 79 1018.3
20260507180939 56 10 0.0 2.0 0.00 0.00 0.00 79 1018.3
20260507175954 56 317 1.0 4.0 0.00 0.00 0.00 80 1018.3
20260507175000 56 30 1.0 4.0 0.00 0.00 0.00 79 1018.3
20260507172929 55 273 3.0 7.0 0.00 0.00 0.00 79 1018.2
20260507171937 55 274 3.0 7.0 0.00 0.00 0.00 79 1018.1
20260507170948 55 255 3.0 7.0 0.00 0.00 0.00 81 1018.2
20260507165919 54 240 2.0 6.0 0.00 0.00 0.00 80 1018.2
20260507164915 54 321 2.0 6.0 0.00 0.00 0.00 80 1018.2
20260507163919 54 257 1.0 5.0 0.00 0.00 0.00 82 1018.2
20260507161716 53 267 0.0 2.0 0.00 0.00 0.00 84 1018.2
20260507160655 53 267 0.0 0.0 0.00 0.00 0.00 84 1018.3
20260507155630 52 267 0.0 0.0 0.00 0.00 0.00 84 1018.3
20260507153519 52 267 0.0 0.0 0.00 0.00 0.00 86 1018.3
20260507152520 52 267 1.0 2.0 0.00 0.00 0.00 86 1018.3